TimeCST,TemperatureF,Dew PointF,Humidity,Sea Level PressureIn,VisibilityMPH,Wind Direction,Wind SpeedMPH,Gust SpeedMPH,PrecipitationIn,Events,Conditions,WindDirDegrees,DateUTC
12:15 AM,25.3,15.8,67,30.09,10.0,WNW,9.2,-,N/A,,Clear,300,2013-02-19 06:15:00
12:35 AM,23.9,15.3,70,30.10,10.0,WNW,5.8,-,N/A,,Clear,300,2013-02-19 06:35:00
12:55 AM,23.0,15.3,72,30.11,10.0,WNW,5.8,-,N/A,,Clear,300,2013-02-19 06:55:00
1:15 AM,23.7,15.6,71,30.12,10.0,NW,10.4,-,N/A,,Clear,310,2013-02-19 07:15:00
1:35 AM,23.7,15.4,71,30.11,10.0,NNW,9.2,-,N/A,,Clear,330,2013-02-19 07:35:00
1:55 AM,24.8,15.8,69,30.12,10.0,NW,11.5,-,N/A,,Clear,310,2013-02-19 07:55:00
2:15 AM,24.3,16.2,71,30.13,10.0,NW,10.4,-,N/A,,Clear,320,2013-02-19 08:15:00
2:35 AM,24.8,16.0,69,30.14,10.0,NW,11.5,-,N/A,,Clear,310,2013-02-19 08:35:00
2:55 AM,24.4,16.0,70,30.14,10.0,NW,12.7,-,N/A,,Clear,320,2013-02-19 08:55:00
3:15 AM,23.4,16.3,75,30.14,10.0,North,13.8,-,N/A,,Clear,360,2013-02-19 09:15:00
3:35 AM,22.3,16.2,77,30.15,10.0,NNW,9.2,-,N/A,,Clear,330,2013-02-19 09:35:00
3:55 AM,22.6,16.0,76,30.15,10.0,NNW,13.8,-,N/A,,Clear,330,2013-02-19 09:55:00
4:15 AM,21.9,14.9,74,30.15,10.0,NNW,10.4,-,N/A,,Clear,330,2013-02-19 10:15:00
4:35 AM,21.2,14.9,77,30.16,10.0,NNW,11.5,-,N/A,,Clear,340,2013-02-19 10:35:00
4:55 AM,21.2,13.1,71,30.17,10.0,NNW,13.8,25.3,N/A,,Clear,340,2013-02-19 10:55:00
5:15 AM,19.9,11.8,71,30.19,10.0,NW,11.5,-,N/A,,Clear,310,2013-02-19 11:15:00
5:35 AM,19.4,12.2,74,30.21,10.0,NW,12.7,-,N/A,,Clear,310,2013-02-19 11:35:00
5:55 AM,18.7,11.1,72,30.21,10.0,NW,12.7,-,N/A,,Clear,320,2013-02-19 11:55:00
6:15 AM,18.5,10.8,72,30.22,10.0,NNW,13.8,-,N/A,,Clear,330,2013-02-19 12:15:00
6:35 AM,18.0,10.4,72,30.22,10.0,NNW,13.8,19.6,N/A,,Clear,330,2013-02-19 12:35:00
6:55 AM,17.6,10.4,73,30.24,10.0,NNW,12.7,-,N/A,,Clear,330,2013-02-19 12:55:00
7:15 AM,17.4,9.5,71,30.25,10.0,NNW,16.1,-,N/A,,Clear,330,2013-02-19 13:15:00
7:35 AM,17.2,9.3,71,30.27,10.0,NW,12.7,-,N/A,,Clear,320,2013-02-19 13:35:00
7:55 AM,17.6,9.5,71,30.27,10.0,NNW,12.7,-,N/A,,Clear,330,2013-02-19 13:55:00
8:15 AM,18.3,8.4,65,30.28,10.0,NNW,16.1,-,N/A,,Clear,330,2013-02-19 14:15:00
8:35 AM,18.5,7.7,63,30.30,10.0,NNW,21.9,-,N/A,,Clear,330,2013-02-19 14:35:00
8:55 AM,19.0,7.2,60,30.30,10.0,NNW,21.9,-,N/A,,Clear,340,2013-02-19 14:55:00
9:15 AM,19.4,6.8,58,30.31,10.0,NW,20.7,-,N/A,,Clear,320,2013-02-19 15:15:00
9:35 AM,20.1,6.1,55,30.31,10.0,North,21.9,28.8,N/A,,Clear,350,2013-02-19 15:35:00
9:55 AM,20.3,4.6,51,30.32,10.0,NNW,23.0,28.8,N/A,,Clear,340,2013-02-19 15:55:00
10:15 AM,21.0,3.6,47,30.33,10.0,NNW,18.4,-,N/A,,Clear,340,2013-02-19 16:15:00
10:35 AM,21.7,3.4,45,30.33,10.0,NW,21.9,25.3,N/A,,Clear,320,2013-02-19 16:35:00
10:55 AM,22.5,2.1,41,30.33,10.0,NNW,19.6,24.2,N/A,,Clear,330,2013-02-19 16:55:00
11:15 AM,23.0,1.4,39,30.33,10.0,NNW,16.1,-,N/A,,Clear,340,2013-02-19 17:15:00
11:35 AM,23.9,1.4,38,30.33,10.0,NNW,13.8,19.6,N/A,,Clear,340,2013-02-19 17:35:00
11:55 AM,24.8,-0.0,34,30.33,10.0,NNW,16.1,20.7,N/A,,Clear,340,2013-02-19 17:55:00
12:15 PM,25.2,-2.0,31,30.33,10.0,North,17.3,20.7,N/A,,Clear,350,2013-02-19 18:15:00
12:35 PM,26.1,-2.2,29,30.33,10.0,NNW,15.0,18.4,N/A,,Clear,330,2013-02-19 18:35:00
12:55 PM,27.0,-3.8,26,30.33,10.0,NNW,12.7,18.4,N/A,,Clear,340,2013-02-19 18:55:00
1:15 PM,27.1,-3.8,26,30.32,10.0,NW,13.8,19.6,N/A,,Clear,310,2013-02-19 19:15:00
1:35 PM,28.0,-3.6,25,30.31,10.0,NW,12.7,17.3,N/A,,Clear,320,2013-02-19 19:35:00
1:55 PM,28.9,-3.3,25,30.31,10.0,NNW,16.1,-,N/A,,Clear,330,2013-02-19 19:55:00
2:15 PM,29.3,-4.7,23,30.30,10.0,NNW,12.7,19.6,N/A,,Clear,340,2013-02-19 20:15:00
2:35 PM,30.4,-4.9,22,30.30,10.0,NW,10.4,18.4,N/A,,Clear,320,2013-02-19 20:35:00
2:55 PM,30.9,-5.8,20,30.29,10.0,NNW,16.1,19.6,N/A,,Clear,330,2013-02-19 20:55:00
3:15 PM,30.7,-6.2,20,30.29,10.0,North,9.2,18.4,N/A,,Clear,350,2013-02-19 21:15:00
3:35 PM,30.6,-6.7,20,30.29,10.0,North,10.4,-,N/A,,Clear,350,2013-02-19 21:35:00
3:55 PM,31.1,-7.8,18,30.29,10.0,North,10.4,-,N/A,,Clear,360,2013-02-19 21:55:00
4:15 PM,31.1,-6.7,19,30.29,10.0,NNW,9.2,-,N/A,,Clear,330,2013-02-19 22:15:00
4:35 PM,30.7,-7.4,19,30.28,10.0,North,10.4,-,N/A,,Clear,10,2013-02-19 22:35:00
4:55 PM,30.7,-6.2,20,30.28,10.0,North,8.1,-,N/A,,Clear,360,2013-02-19 22:55:00
5:15 PM,29.8,-6.7,20,30.28,10.0,North,6.9,-,N/A,,Clear,10,2013-02-19 23:15:00
6:35 PM,24.6,-3.6,29,30.27,10.0,NNE,4.6,-,N/A,,Clear,20,2013-02-20 00:35:00
6:55 PM,21.0,-1.7,37,30.28,10.0,NE,3.5,-,N/A,,Clear,40,2013-02-20 00:55:00
7:15 PM,19.4,-0.6,42,30.29,10.0,NNE,4.6,-,N/A,,Clear,20,2013-02-20 01:15:00
7:35 PM,19.6,-0.8,41,30.28,10.0,NNE,4.6,-,N/A,,Clear,30,2013-02-20 01:35:00
7:55 PM,19.0,-0.2,43,30.28,10.0,NE,6.9,-,N/A,,Clear,40,2013-02-20 01:55:00
8:15 PM,19.4,-0.2,42,30.29,10.0,NE,4.6,-,N/A,,Clear,50,2013-02-20 02:15:00
8:35 PM,19.4,-0.4,42,30.30,10.0,NE,4.6,-,N/A,,Clear,50,2013-02-20 02:35:00
8:55 PM,19.0,-0.4,43,30.31,10.0,NE,5.8,-,N/A,,Clear,50,2013-02-20 02:55:00
9:15 PM,18.3,0.5,46,30.32,10.0,NE,5.8,-,N/A,,Clear,40,2013-02-20 03:15:00
9:35 PM,17.6,1.4,49,30.33,10.0,NE,5.8,-,N/A,,Clear,50,2013-02-20 03:35:00
9:55 PM,16.9,0.9,50,30.33,10.0,NE,5.8,-,N/A,,Clear,40,2013-02-20 03:55:00
10:15 PM,17.2,0.5,48,30.33,10.0,NNE,8.1,-,N/A,,Clear,30,2013-02-20 04:15:00
10:35 PM,17.1,0.5,48,30.33,10.0,NE,9.2,-,N/A,,Clear,40,2013-02-20 04:35:00
10:55 PM,17.2,0.3,48,30.33,10.0,NE,9.2,-,N/A,,Clear,40,2013-02-20 04:55:00
11:15 PM,17.2,-0.0,47,30.34,10.0,NE,8.1,-,N/A,,Clear,50,2013-02-20 05:15:00
11:35 PM,15.8,1.6,54,30.33,10.0,NE,9.2,-,N/A,,Clear,40,2013-02-20 05:35:00
11:55 PM,15.6,1.9,55,30.34,10.0,NE,6.9,-,N/A,,Clear,40,2013-02-20 05:55:00